Location: ??????
(36.0418°N, 43.6351°E)
Time: 22:25:44
(UTC+00:00)

Cosmos 1606 - Pass Details

Date: 07 March 2021
Orbit: 502 x 527 km, 82.5° (Epoch: 19 April)

Event Time Altitude Azimuth Distance (km) Brightness Sun altitude
Exits shadow 02:06:45 19° 321° (NW) 1,305 4.4 -17.2°
Drops below altitude 10° 02:08:20 10° 340° (NNW) 1,778 5.3 -16.8°
Sets 02:10:45 0° 354° (N) 2,671 6.3 -16.4°
